Simultaneous Nadir Overpasses (SNOs) Predictions

Prediction of SNOs between GOES-16 and AQUA Satellite Orbit:

Table of predicted SNOs for the next 14.0 days since TLE Epoch: 2/21/2025
Index Date Time (GOES-16) GOES-16 Lat,Lon AQUA Lat,Lon Distance(km) Time Diff (sec)
1 02/22/2025 07:40:12 -0.05, -75.20 0.29, -76.80 181.49 80
2 02/24/2025 07:18:08 -0.04, -75.20 -0.72, -72.05 359.08 80
3 02/24/2025 19:37:39 0.04, -75.20 -0.31, -76.77 178.56 80
4 02/26/2025 19:20:55 0.03, -75.21 0.72, -72.01 363.67 80
5 02/27/2025 07:40:17 -0.02, -75.22 0.29, -76.70 167.87 80
6 03/01/2025 07:18:11 -0.02, -75.24 -0.76, -71.95 375.38 80
7 03/01/2025 19:37:42 0.02, -75.24 -0.28, -76.66 161.88 80
8 03/03/2025 19:20:54 0.02, -75.26 0.73, -71.89 382.58 80
9 03/04/2025 07:40:17 -0.02, -75.28 0.23, -76.58 148.19 80
10 03/06/2025 07:18:08 -0.02, -75.30 -0.80, -71.82 396.95 80
11 03/06/2025 19:37:38 0.02, -75.29 -0.25, -76.52 140.08 80
